Torna al catalogo

EUTE 113 WEST A(SATMEX 6

AttivoComunicazioniGEO
NORAD 29162·PAYLOAD·🇪🇺 EU

Lanciato May 27, 2006 da Guiana Space Centre

Loading…

TLE

AggiornatoSource: Space-Track

Epoca: Sep 14, 2026, 13:32 UTC

1 29162U 06020A   26257.56400959  .00000057  00000-0  00000-0 0  9990
2 29162   2.6135  80.7439 0000442  68.0602 281.3333  0.98934348 74240

Traccia EUTE 113 WEST A(SATMEX 6 in tempo reale con AllMySat

Download on the App Store